Track GLOBALSTAR M091 now! 10-day predictions GLOBALSTAR M091 is classified as:
1 37741U 11033C 23341.72255135 -.00000076 00000-0 15354-3 0 9998 2 37741 51.9971 170.3001 0001427 93.1923 32.4472 12.62269423573047